Theta_e
336 337 330 321 321 323 321 320 320 321 319 318 318 320 324 323 324 320 319 319 320 321 317 318 317 327 319 320 318 317 318 318
336 326 322 322 322 322 321 321 320 320 319 316 316 320 319 319 319 321 317 316 316 319 316 316 317 317 316 316 314 314 316 317
334 322 323 323 322 322 321 322 320 319 319 316 314 316 317 317 320 319 318 316 315 318 316 317 316 317 317 314 314 315 315 316
320 322 322 323 323 323 322 319 320 319 318 317 315 316 316 318 318 317 317 316 315 317 316 317 316 316 315 313 314 312 313 313
321 323 322 323 323 323 320 317 317 318 318 317 315 316 316 315 314 316 316 314 315 314 313 314 316 315 313 313 313 311 312 312
323 323 322 322 321 320 321 324 319 317 316 315 315 314 314 314 312 313 315 316 315 312 311 311 313 311 311 311 310 309 309 309
322 323 323 322 319 319 319 319 318 317 315 314 313 313 314 313 311 310 313 315 316 311 310 310 311 310 309 309 308 307 307 308
321 322 323 320 319 319 320 320 316 316 314 312 311 312 313 312 310 310 313 313 316 311 309 310 309 308 308 307 306 307 307 308
321 322 321 320 319 319 320 318 317 317 313 310 309 308 310 311 310 312 312 313 314 310 308 308 308 306 306 306 306 305 306 306
320 319 319 320 321 321 321 319 319 315 314 313 310 309 310 310 310 310 310 313 312 311 307 306 306 304 305 305 304 306 306 307
318 318 318 320 321 321 321 319 315 315 314 310 310 309 308 307 307 307 309 312 311 309 308 307 305 303 303 304 304 304 306 309
319 317 317 320 323 322 319 318 315 314 313 309 307 305 304 305 306 306 306 309 309 309 308 307 305 304 302 305 308 307 307 303
319 320 322 322 322 319 318 316 313 312 310 309 308 306 305 306 305 304 303 305 306 308 307 306 304 303 303 305 303 307 303 303
321 322 321 318 318 317 316 314 312 312 313 310 307 305 304 302 302 303 306 306 304 305 306 305 303 302 302 303 302 301 300 300
319 318 310 308 308 308 310 306 305 306 306 306 305 304 304 305 305 306 306 303 301 302 303 303 302 305 307 302 300 300 300 303
306 305 304 304 304 305 304 304 303 303 304 303 304 304 303 303 305 305 304 300 301 302 303 303 304 307 305 301 302 303 303 305
301 302 303 303 303 303 301 300 301 301 301 302 303 302 302 301 302 302 300 301 303 303 301 301 302 302 302 301 299 302 300 301
299 300 301 301 299 299 299 298 298 299 300 300 302 301 301 300 300 299 300 300 300 300 300 301 300 303 302 299 302 304 304 304
300 299 299 300 298 297 297 297 298 299 299 299 299 299 300 299 299 299 299 299 300 300 300 300 300 301 301 302 303 304 303 303
299 298 298 296 295 295 296 297 297 298 299 299 298 298 298 297 298 299 299 299 300 300 300 300 301 302 299 302 303 303 303 302
Wind_Speed
14 12 7 7 5 4 6 7 6 7 6 4 3 2 2 3 6 6 5 4 4 4 3 3 4 9 4 6 6 4 6 4
16 12 13 10 8 6 7 8 8 8 5 4 4 4 3 3 4 4 4 4 5 5 4 5 4 4 6 5 4 5 6 5
10 10 11 12 13 8 8 7 7 7 8 5 5 5 4 5 5 6 5 5 5 4 4 4 4 4 4 5 5 4 6 8
14 13 14 12 12 9 7 8 7 7 6 7 5 5 5 5 5 4 6 4 4 4 4 5 4 4 5 4 4 5 5 5
23 21 16 15 11 9 8 8 7 8 9 7 5 5 5 5 4 6 6 4 4 3 3 3 4 5 6 5 5 5 5 5
17 14 13 10 11 10 8 8 9 8 8 6 5 5 4 4 4 3 4 4 4 3 4 4 4 4 4 4 4 5 5 5
11 11 10 9 8 10 8 7 7 8 7 6 5 5 4 4 4 4 4 4 3 2 2 4 5 4 4 4 4 3 4 6
7 7 7 6 6 4 7 4 6 6 5 5 4 4 4 3 3 2 3 3 4 3 3 4 4 4 4 4 5 5 5 7
8 9 8 7 6 5 3 5 2 4 3 4 3 1 1 1 2 3 4 4 4 3 3 4 4 4 5 6 4 5 6 4
10 7 5 3 5 2 4 4 3 2 3 2 2 2 2 1 2 4 4 4 4 3 4 4 4 4 6 6 5 4 5 5
11 9 4 7 4 7 6 6 4 3 4 2 1 2 1 2 2 3 3 5 5 5 5 3 4 3 4 6 5 5 6 5
6 5 5 4 7 4 1 4 4 4 6 2 2 1 1 2 2 2 5 5 6 6 5 5 5 4 5 5 5 5 6 7
8 5 5 5 7 4 3 2 4 7 3 4 2 2 2 2 3 6 5 5 6 6 5 5 5 4 5 5 6 8 3 4
8 7 3 7 4 6 5 3 6 6 5 6 6 4 3 4 5 4 4 3 4 6 6 5 5 5 5 4 5 6 5 4
5 6 8 7 8 8 7 7 6 7 7 7 5 4 4 5 6 5 6 5 4 6 5 5 5 6 5 5 5 6 5 5
12 11 8 10 12 11 9 8 7 7 7 5 4 6 4 4 5 5 4 4 4 5 5 6 7 6 5 5 4 4 5 5
12 9 9 8 6 6 7 6 8 6 5 4 5 4 5 5 6 5 4 4 5 6 6 6 6 6 6 6 4 6 5 5
8 8 6 5 5 5 7 6 4 4 6 5 4 6 6 5 4 6 6 6 5 6 6 6 7 6 5 6 6 6 6 5
8 7 5 4 4 4 5 5 6 6 6 5 6 6 6 6 5 6 6 5 6 6 6 6 6 6 5 5 6 7 7 6
7 2 5 4 3 4 5 6 6 6 6 6 6 6 6 6 6 6 6 7 6 6 6 6 5 5 5 5 6 7 7 6
Wind_Direction
165 155 145 135 128 109 128 116 109 99 81 73 66 61 55 50 45 42 38 35 9 9 7 358 355 355 356 353 345 351 339 339
163 148 141 131 123 121 134 124 120 116 116 97 80 75 47 41 37 43 34 16 4 354 356 346 349 351 346 349 337 334 332 327
147 140 137 138 133 150 144 134 125 131 106 105 88 81 66 56 50 36 34 21 5 350 354 348 351 345 344 329 326 328 329 331
138 159 160 150 145 148 149 124 112 99 96 88 93 81 74 72 61 45 47 48 28 24 5 355 348 335 318 309 308 311 313 309
168 167 166 154 150 142 123 110 108 102 107 102 97 92 97 104 86 56 61 53 39 26 1 336 309 315 317 322 322 321 319 310
167 162 157 153 138 138 123 124 115 106 106 110 104 117 118 109 88 75 67 29 33 16 346 330 326 325 317 315 308 309 304 305
167 164 149 140 134 116 116 109 116 119 113 105 100 93 79 69 49 36 23 356 354 0 333 310 328 326 312 306 303 287 282 289
122 102 100 86 78 87 104 103 121 111 104 89 59 57 56 51 29 357 332 324 337 341 327 324 322 326 312 309 290 295 277 285
100 110 117 108 69 82 59 130 142 120 81 91 74 111 356 335 298 310 320 324 341 329 307 311 330 322 300 296 286 300 308 296
128 128 121 79 112 129 178 160 216 112 105 157 151 185 222 214 283 296 299 328 313 303 307 317 330 325 319 309 318 315 304 314
137 135 115 92 131 211 201 177 163 153 143 144 129 37 20 340 305 312 311 309 309 319 315 319 318 315 301 296 297 303 306 305
73 67 74 168 211 308 255 108 160 196 200 186 199 151 248 291 294 276 302 313 322 321 318 327 319 309 302 293 307 301 331 319
90 92 317 338 19 347 1 240 217 227 237 18 34 360 342 300 295 308 316 315 321 310 314 317 313 304 296 298 310 324 290 298
99 96 26 353 14 228 202 238 352 354 12 32 42 38 331 333 322 320 316 307 307 313 307 301 305 299 294 296 299 299 300 287
90 59 44 36 52 35 50 48 33 25 49 48 45 22 348 326 308 307 320 321 303 295 312 324 308 292 298 315 305 303 302 305
83 75 66 50 44 39 37 27 14 8 15 9 1 3 341 309 300 309 297 277 285 306 325 312 307 324 321 300 292 298 300 301
78 75 64 53 35 34 36 11 356 353 323 342 347 332 318 310 308 293 273 297 326 318 311 308 312 301 305 308 290 299 304 291
60 55 58 72 40 7 14 350 323 329 348 356 344 317 310 305 302 325 326 316 305 305 305 310 309 306 312 335 332 317 318 315
36 12 15 29 37 2 338 341 343 342 340 328 321 314 316 315 316 307 301 293 288 289 300 312 316 326 349 349 339 330 333 332
95 297 298 300 314 333 340 338 339 331 321 323 326 315 316 314 304 299 291 286 293 288 302 309 323 356 348 345 343 340 346 357